Location: Port Colborne
(42.8865°N, 79.2509°W)
Time: 20:03:38
(UTC-04:00)

OTV 5 (USA 277) - Pass Details

Date: 25 August 2019
Orbit: 295 x 339 km, 54.5° (Epoch: 08 September)

Event Time Altitude Azimuth Distance (km) Brightness Sun altitude
Rises 21:45:45 0° 253° (WSW) 1,998 ? -17.8°
Reaches altitude 10° 21:47:50 10° 266° (W) 1,170 ? -18.1°
Maximum altitude 21:50:08 27° 329° (NNW) 610 ? -18.5°
Enters shadow 21:51:48 15° 23° (NNE) 943 ? -18.7°
